1998-067NU

Last updated on Fri Aug 17 2018 00:15:07 GMT+0000 (Coordinated Universal Time)

1 43546U 98067NU 18228.56727046 .00008080 00000-0 12475-3 0 9998 2 43546 51.6436 77.5662 0007025 65.7940 294.3801 15.55087719 5221
UTC large
Height (km)
Speed (km/s)
/
Latitude / Longitude
Inclination (degrees)
Orbital Period (minutes)
Azimuth
Elevation
Range (km)
Doppler Factor

Next 0 passes for location: London (51.5072 / 0.1276)

Sorry there are no passes over London.